Home > Weather > Sangerhausen > Past weeks

Flag for Germany Weather for the Past 2 Weeks in Sangerhausen, Saxony-Anhalt, Germany

Now
36 °F

Passing clouds.


Feels Like: 30 °F
Forecast: 29 / 41 °F
Wind: 7 mph from Southwest

Location: Erfurt-Bindersleben

Current Time: Feb 11, 2016 at 5:57:39 AM

Latest Report: Feb 11, 2016 at 5:20 AM


Visibility: N/A

Pressure: 29.56 "Hg

Humidity: 87%

Dew point: 32 °F

Location of SangerhausenLocation

Historic Weather in Sangerhausen — Graph

°F

Sangerhausen Temperature Yesterday

Maximum temperature yesterday: 41 °F (at 11:20 AM)
Minimum temperature yesterday: 34 °F (at 6:20 AM)
Average temperature yesterday: 37 °F

High & Low Weather Summary for the Past Weeks

 TemperatureHumidityPressure
High54 °F (Feb 1, 1:20 PM)100% (Feb 1, 5:20 AM)30.30 "Hg (Feb 1, 5:20 AM)
Low32 °F (Feb 5, 4:20 AM)47% (Feb 7, 1:20 PM)28.97 "Hg (Feb 9, 7:20 PM)
Average42 °F77%29.85 "Hg
* Reported Jan 27 4:20 AM — Feb 11 4:20 AM, Sangerhausen, Weather by CustomWeather, © 2016

Note: Actual official high and low records may vary slightly from our data, if they occured in-between our weather recording intervals... More about our weather records

Advertising

Sangerhausen Weather History for the Previous 24 Hours

 ConditionsComfort  
Time TempWeatherWind HumidityBarometerVisibility
4:20 AM
Thu, Feb 11
36 °FPassing clouds.13 mph87%29.53 "HgN/A
3:20 AM36 °FPassing clouds.17 mph87%29.53 "HgN/A
2:50 AM36 °FPassing clouds.17 mph93%29.53 "HgN/A
2:20 AM37 °FLight rain. Passing clouds.10 mph87%29.53 "HgN/A
1:50 AM37 °FPassing clouds.13 mph87%29.50 "HgN/A
1:20 AM37 °FPassing clouds.12 mph81%29.47 "HgN/A
12:50 AM37 °FPassing clouds.16 mph87%29.47 "HgN/A
12:20 AM37 °FLight rain. Passing clouds.13 mph87%29.47 "HgN/A
11:50 PM
Wed, Feb 10
37 °FPassing clouds.15 mph87%29.47 "HgN/A
10:50 PM37 °FPartly cloudy.20 mph87%29.45 "HgN/A
10:20 PM37 °FPartly cloudy.20 mph81%29.42 "HgN/A
9:50 PM37 °FPartly cloudy.20 mph81%29.42 "HgN/A
9:20 PM37 °FPassing clouds.12 mph81%29.42 "HgN/A
8:50 PM37 °FPassing clouds.15 mph81%29.42 "HgN/A
8:20 PM37 °FPassing clouds.17 mph81%29.42 "HgN/A
7:50 PM37 °FPassing clouds.16 mph81%29.39 "HgN/A
7:20 PM37 °FPassing clouds.15 mph81%29.39 "HgN/A
6:50 PM37 °FPassing clouds.15 mph81%29.39 "HgN/A
6:20 PM36 °FPassing clouds.20 mph87%29.36 "HgN/A
5:50 PM37 °FPassing clouds.17 mph81%29.36 "HgN/A
5:20 PM37 °FPartly sunny.15 mph81%29.36 "HgN/A
4:50 PM37 °FSprinkles. Partly sunny.15 mph81%29.36 "HgN/A
4:20 PM37 °FPartly sunny.16 mph81%29.33 "HgN/A
3:50 PM37 °FPartly sunny.15 mph81%29.33 "HgN/A
3:20 PM37 °FPartly sunny.18 mph87%29.33 "HgN/A
2:50 PM37 °FSprinkles. Partly sunny.16 mph87%29.33 "HgN/A
2:20 PM37 °FSprinkles. Partly sunny.20 mph87%29.33 "HgN/A
1:50 PM39 °FSprinkles. Partly sunny.21 mph75%29.33 "HgN/A
1:20 PM39 °FScattered clouds.18 mph75%29.33 "HgN/A
12:50 PM39 °FScattered clouds.20 mph75%29.33 "HgN/A
12:20 PM39 °FScattered clouds.20 mph70%29.33 "HgN/A
11:50 AM41 °FScattered clouds.23 mph66%29.30 "HgN/A
11:20 AM41 °FScattered clouds.21 mph66%29.30 "HgN/A
10:50 AM39 °FScattered clouds.18 mph65%29.30 "HgN/A
10:20 AM39 °FScattered clouds.20 mph70%29.30 "HgN/A
9:50 AM37 °FScattered clouds.20 mph70%29.30 "HgN/A
9:20 AM36 °FScattered clouds.16 mph75%29.30 "HgN/A
8:50 AM36 °FPartly sunny.14 mph75%29.30 "HgN/A
8:20 AM36 °FPartly sunny.16 mph75%29.30 "HgN/A
7:50 AM34 °FBroken clouds.10 mph81%29.30 "HgN/A
7:20 AM34 °FClear.10 mph81%29.30 "Hg10 mi
6:50 AM34 °FClear.14 mph81%29.30 "Hg10 mi
6:20 AM34 °FClear.12 mph81%29.27 "Hg10 mi
5:50 AM36 °FClear.14 mph75%29.27 "Hg10 mi
5:20 AM36 °FClear.12 mph75%29.27 "Hg10 mi
Weather by CustomWeather, © 2016

See weather overviewHow to use our weather pages